Weather History for KPWK - October, 2011

Change the Weather History Date:

Sunday, October 9, 2011

  Actual Average Record
Temperature  
Mean Temperature 64 °F 55 °F  
Max Temperature 79 °F 65 °F 85 °F (2010)
Min Temperature 51 °F 45 °F 30 °F (2000)
Degree Days  
Heating Degree Days 0 11  
Month to date heating degree days 87  
Since 1 July heating degree days 199  
Cooling Degree Days 0 1  
Month to date cooling degree days 9  
Year to date cooling degree days 787  
Growing Degree Days 14 (Base 50)    
Moisture  
Dew Point 51 °F    
Average Humidity 67    
Maximum Humidity 90    
Minimum Humidity 36    
Precipitation  
Precipitation 0.00 in 0.09 in 0.40 in (2009)
Month to date precipitation 0.93  
Year to date precipitation 26.62  
Sea Level Pressure  
Sea Level Pressure 30.32 in    
Wind  
Wind Speed 1 mph (ESE)    
Max Wind Speed 12 mph    
Max Gust Speed -    
Visibility 9 miles    
Events      
T = Trace of Precipitation, MM = Missing Value Source: NWS Daily Summary

Daily Weather History Graph

Daily Weather History Graph

Search for Another Location

Airport or City:

Trip Planner

Search our weather history database for the weather conditions in past years. The results will help you decide how hot, cold, wet, or windy it might be!

Date:

Astronomy

Oct. 09, 2011 Rise Set
Actual Time 6:57 AM CDT 6:20 PM CDT
Civil Twilight 6:29 AM CDT 6:48 PM CDT
Nautical Twilight 5:56 AM CDT 7:20 PM CDT
Astronomical Twilight 5:24 AM CDT 7:52 PM CDT
Moon 4:58 PM CDT (10/9) 4:39 AM CDT (10/9)
Length of Visible Light 12h 18m
Length of Day
11h 22m
Waxing Gibbous, 95% of the Moon is Illuminated
Oct 9
Waxing Gibbous
Oct 11
Full
Oct 19
Last Quarter
Oct 26
New
Nov 2
First Quarter

Hourly Weather History & Observations

Time (CDT) Temp. Dew Point Humidity Pressure Visibility Wind Dir Wind Speed Gust Speed Precip Events Conditions
1:52 AM 55.9 °F 51.1 °F 84% 30.32 in 10.0 mi Calm Calm - N/A   Clear
2:52 AM 55.9 °F 50.0 °F 80% 30.32 in 9.0 mi Calm Calm - N/A   Clear
3:52 AM 54.0 °F 50.0 °F 86% 30.33 in 9.0 mi Calm Calm - N/A   Clear
4:52 AM 52.0 °F 48.9 °F 89% 30.35 in 8.0 mi Calm Calm - N/A   Clear
5:52 AM 51.1 °F 48.0 °F 89% 30.36 in 8.0 mi Calm Calm - N/A   Clear
6:52 AM 51.1 °F 46.9 °F 86% 30.37 in 8.0 mi Calm Calm - N/A   Clear
7:52 AM 54.0 °F 51.1 °F 90% 30.38 in 7.0 mi Calm Calm - N/A   Clear
8:52 AM 61.0 °F 53.1 °F 75% 30.38 in 8.0 mi Calm Calm - N/A   Clear
9:52 AM 68.0 °F 54.0 °F 61% 30.39 in 10.0 mi Calm Calm - N/A   Clear
10:52 AM 73.9 °F 54.0 °F 50% 30.37 in 10.0 mi Calm Calm - N/A   Clear
11:52 AM 75.9 °F 50.0 °F 40% 30.36 in 10.0 mi South 3.5 mph - N/A   Clear
12:52 PM 78.1 °F 48.9 °F 36% 30.35 in 10.0 mi South 4.6 mph - N/A   Clear
2:52 PM 77.0 °F 48.9 °F 37% 30.30 in 10.0 mi East 11.5 mph - N/A   Clear
3:52 PM 75.9 °F 48.0 °F 37% 30.28 in 10.0 mi East 10.4 mph - N/A   Clear
4:52 PM 75.0 °F 50.0 °F 41% 30.28 in 10.0 mi East 6.9 mph - N/A   Clear
5:52 PM 71.1 °F 48.9 °F 45% 30.27 in 10.0 mi East 4.6 mph - N/A   Clear
7:52 PM 63.0 °F 52.0 °F 67% 30.26 in 10.0 mi Calm Calm - N/A   Clear
8:52 PM 59.0 °F 52.0 °F 78% 30.26 in 10.0 mi Calm Calm - N/A   Clear
9:52 PM 59.0 °F 53.1 °F 81% 30.27 in 9.0 mi Calm Calm - N/A   Clear
10:52 PM 57.9 °F 53.1 °F 84% 30.27 in 8.0 mi Calm Calm - N/A   Clear